Location: Solstice Park, West Seattle
(47.5363°N, 122.3905°W)
Time: 13:12:49
(UTC-07:00)

ISS - Pass Details

Date: 17 May 2021
Orbit: 417 x 422 km, 51.6° (Epoch: 22 June)

Event Time Altitude Azimuth Distance (km) Brightness Sun altitude
Exits shadow 04:08:14 14° 189° (S) 1,264 -1.8 -11.6°
Drops below altitude 10° 04:09:08 10° 176° (S) 1,499 -1.3 -11.4°
Sets 04:11:38 0° 157° (SSE) 2,360 -0.2 -11.2°
